EW2348 Weather Reports


Display with metric or nautical units.
time (UTC)temp
F
wind
direction
speed
MPH
gust
MPH
rain 1hr
in
rain 24hr
in
rain mn
in
humidity
%
barometer
mb
20170124131213 40 168 5.0 8.0 0.00 0.12 0.00 99 1001.2
20170124131013 40 173 4.0 7.0 0.00 0.12 0.00 99 1001.2
20170124130914 40 176 3.0 7.0 0.00 0.12 0.00 99 1001.2
20170124130713 40 156 2.0 7.0 0.00 0.12 0.00 99 1001.1
20170124130314 39 162 2.0 7.0 0.00 0.12 0.00 99 1001.1
20170124130113 39 157 2.0 9.0 0.00 0.12 0.00 99 1001.0
20170124130013 40 155 3.0 9.0 0.00 0.12 0.00 99 1001.1
20170124125915 40 156 4.0 9.0 0.00 0.12 0.00 99 1001.0
20170124125814 40 164 3.0 9.0 0.00 0.12 0.00 99 1001.0
20170124125713 40 166 3.0 9.0 0.00 0.12 0.00 99 1001.1
20170124125413 40 158 3.0 9.0 0.00 0.12 0.00 99 1001.2
20170124125313 39 157 4.0 9.0 0.00 0.13 0.00 99 1001.1
20170124125213 40 158 5.0 9.0 0.00 0.13 0.00 99 1000.8
20170124125113 40 158 3.0 9.0 0.00 0.13 0.00 99 1001.0
20170124125013 40 156 3.0 9.0 0.00 0.13 0.00 99 1000.9
20170124124713 40 153 3.0 8.0 0.00 0.13 0.00 99 1000.8
20170124124613 39 154 3.0 8.0 0.00 0.13 0.00 99 1000.9
20170124124513 40 160 4.0 8.0 0.00 0.13 0.00 99 1000.8
20170124124414 40 163 3.0 8.0 0.00 0.13 0.00 99 1000.7
20170124124113 40 166 3.0 8.0 0.00 0.13 0.00 99 1000.8
20170124124013 40 169 3.0 8.0 0.00 0.13 0.00 99 1000.6
20170124123913 40 174 3.0 8.0 0.00 0.13 0.00 99 1000.8
20170124123613 40 179 5.0 10.0 0.00 0.13 0.00 99 1000.6
20170124123214 39 177 3.0 10.0 0.00 0.13 0.00 99 1000.7
20170124123013 40 184 2.0 10.0 0.00 0.13 0.00 99 1000.8
20170124122713 39 173 3.0 9.0 0.00 0.14 0.00 99 1000.7
20170124122613 40 173 5.0 9.0 0.00 0.14 0.00 99 1000.6
20170124122514 40 176 3.0 9.0 0.00 0.14 0.00 99 1000.5
20170124122213 39 176 3.0 9.0 0.00 0.14 0.00 99 1000.5
20170124122113 39 176 2.0 9.0 0.00 0.14 0.00 99 1000.5
20170124121913 40 175 3.0 9.0 0.00 0.14 0.00 99 1000.6
20170124121713 40 175 3.0 9.0 0.00 0.14 0.00 99 1000.5
20170124121613 40 174 3.0 5.0 0.00 0.14 0.00 99 1000.5
20170124121314 40 174 3.0 5.0 0.00 0.14 0.00 99 1000.6
20170124121213 40 181 3.0 5.0 0.00 0.14 0.00 99 1000.6
20170124121113 40 181 4.0 5.0 0.00 0.14 0.00 99 1000.8
20170124121013 40 181 1.0 5.0 0.00 0.14 0.00 99 1000.5
20170124120813 40 173 3.0 8.0 0.00 0.14 0.00 99 1000.3
20170124120713 40 171 3.0 8.0 0.00 0.14 0.00 99 1000.6
20170124120613 40 170 3.0 8.0 0.00 0.15 0.00 99 1000.5
20170124120513 40 166 3.0 8.0 0.00 0.15 0.00 99 1000.4
20170124120213 40 150 3.0 8.0 0.00 0.15 0.00 99 1000.4
20170124120014 40 148 3.0 8.0 0.00 0.15 0.00 99 1000.3
20170124115713 40 159 3.0 6.0 0.00 0.15 0.00 99 1000.2
20170124115613 40 164 3.0 9.0 0.00 0.15 0.00 99 1000.3
20170124115513 40 190 4.0 9.0 0.00 0.15 0.00 99 1000.4
20170124115314 40 209 3.0 9.0 0.00 0.15 0.00 99 1000.0
20170124115013 40 213 1.0 9.0 0.00 0.15 0.00 99 1000.0
20170124114913 40 203 3.0 9.0 0.00 0.15 0.00 99 1000.0
20170124114813 40 201 1.0 9.0 0.00 0.15 0.00 99 1000.0
20170124114613 39 197 4.0 9.0 0.00 0.15 0.00 99 999.8
20170124114513 40 183 5.0 9.0 0.00 0.15 0.00 99 999.9
20170124114413 40 172 4.0 8.0 0.00 0.15 0.00 99 1000.0
20170124114013 40 175 3.0 5.0 0.00 0.15 0.00 99 1000.1
20170124113813 40 183 2.0 5.0 0.00 0.15 0.00 99 999.8
20170124113613 40 196 1.0 5.0 0.00 0.17 0.00 99 999.9
20170124113513 40 199 1.0 5.0 0.00 0.17 0.00 99 999.8
20170124113413 40 198 1.0 5.0 0.00 0.17 0.00 99 999.8
20170124113313 40 195 1.0 5.0 0.00 0.17 0.00 99 999.7
20170124113213 40 198 1.0 5.0 0.00 0.17 0.00 99 999.8
20170124113113 40 196 0.0 5.0 0.00 0.17 0.00 99 999.8
20170124112914 39 191 3.0 5.0 0.00 0.17 0.00 99 999.6
20170124112813 39 190 3.0 5.0 0.00 0.17 0.00 99 999.6
20170124112513 40 186 2.0 4.0 0.00 0.17 0.00 99 999.6
20170124112213 40 177 3.0 5.0 0.00 0.17 0.00 99 999.8
20170124112013 40 187 2.0 5.0 0.00 0.18 0.00 99 999.7
20170124111913 40 185 1.0 5.0 0.00 0.18 0.00 99 999.7
20170124111513 40 178 3.0 5.0 0.00 0.18 0.00 99 999.7
20170124111413 40 183 3.0 5.0 0.00 0.18 0.00 99 999.7
20170124111313 40 185 1.0 5.0 0.00 0.19 0.00 99 999.7
20170124111014 40 176 2.0 7.0 0.00 0.19 0.00 99 999.5
20170124110913 40 177 2.0 7.0 0.00 0.19 0.00 99 999.8
20170124110813 40 177 2.0 7.0 0.00 0.19 0.00 99 999.7
20170124110713 40 169 2.0 8.0 0.00 0.19 0.00 99 999.5
20170124110613 40 163 1.0 8.0 0.00 0.19 0.00 99 999.6
20170124110514 40 166 3.0 8.0 0.00 0.19 0.00 99 999.6
20170124110313 40 171 2.0 8.0 0.00 0.20 0.00 99 999.4
20170124110213 40 172 4.0 10.0 0.00 0.20 0.00 99 999.6
20170124110013 40 176 2.0 10.0 0.00 0.20 0.00 99 999.5
20170124105813 40 176 5.0 10.0 0.00 0.20 0.00 99 999.4
20170124105713 40 185 4.0 10.0 0.00 0.20 0.00 99 999.3
20170124105413 40 177 2.0 10.0 0.00 0.20 0.00 99 999.3
20170124105313 40 182 5.0 10.0 0.00 0.21 0.00 99 999.4
20170124105213 40 182 5.0 10.0 0.00 0.21 0.00 99 999.5
20170124105113 40 182 3.0 7.0 0.00 0.21 0.00 99 999.7
20170124105014 40 178 2.0 7.0 0.00 0.21 0.00 99 999.3
20170124104913 40 182 1.0 7.0 0.00 0.21 0.00 99 999.4
20170124104813 40 181 1.0 7.0 0.00 0.22 0.00 99 999.3
20170124104713 40 182 1.0 7.0 0.00 0.22 0.00 99 999.2
20170124104613 40 177 3.0 7.0 0.00 0.22 0.00 99 999.5
20170124104513 40 186 3.0 7.0 0.00 0.22 0.00 99 999.2
20170124104013 40 177 1.0 9.0 0.00 0.22 0.00 99 999.3
20170124103714 40 177 1.0 9.0 0.00 0.24 0.00 99 999.1
20170124103513 39 175 2.0 9.0 0.00 0.24 0.00 99 999.3
20170124103313 39 181 3.0 6.0 0.00 0.25 0.00 99 999.2
20170124103212 39 192 3.0 5.0 0.00 0.25 0.00 99 999.1
20170124103113 40 202 3.0 5.0 0.00 0.25 0.00 99 999.1
20170124103013 40 200 1.0 5.0 0.00 0.25 0.00 99 998.9
20170124102913 40 198 1.0 5.0 0.00 0.25 0.00 99 998.9
20170124102813 40 196 0.0 7.0 0.00 0.25 0.00 99 998.9
20170124102514 40 187 1.0 7.0 0.00 0.25 0.00 99 999.0
20170124102413 40 186 0.0 7.0 0.00 0.25 0.00 99 999.0
20170124102313 40 185 0.0 8.0 0.00 0.25 0.00 99 999.0
20170124102213 40 183 0.0 8.0 0.00 0.25 0.00 99 999.1
20170124101914 39 186 2.0 9.0 0.00 0.25 0.00 99 999.0
20170124101713 40 183 4.0 9.0 0.00 0.26 0.00 99 999.2
20170124101613 40 182 2.0 9.0 0.00 0.26 0.00 99 999.0
20170124101413 39 169 3.0 9.0 0.00 0.26 0.00 99 999.0
20170124101313 39 164 3.0 9.0 0.00 0.26 0.00 99 999.1
20170124101213 39 159 3.0 9.0 0.00 0.26 0.00 99 999.2
20170124101113 39 154 4.0 9.0 0.00 0.26 0.00 99 999.0
20170124100913 40 139 5.0 9.0 0.00 0.26 0.00 99 999.0
20170124100813 39 141 2.0 5.0 0.00 0.26 0.00 99 998.9
20170124100313 40 163 2.0 11.0 0.00 0.27 0.00 99 999.0
20170124095913 40 187 2.0 13.0 0.00 0.27 0.00 99 999.2
20170124095713 40 184 3.0 13.0 0.00 0.27 0.00 99 999.1
20170124095514 40 184 5.0 13.0 0.00 0.27 0.00 99 998.9
20170124095413 40 184 7.0 13.0 0.00 0.27 0.00 99 998.9
20170124095213 40 184 1.0 13.0 0.00 0.27 0.00 99 998.9
20170124095013 40 175 3.0 13.0 0.00 0.27 0.00 99 998.9
20170124094913 40 173 3.0 7.0 0.00 0.27 0.00 99 999.1
20170124094813 40 183 1.0 7.0 0.00 0.27 0.00 99 998.9
20170124094313 40 176 2.0 9.0 0.00 0.27 0.00 99 999.1
20170124094213 40 172 3.0 9.0 0.00 0.27 0.00 99 998.7
20170124094113 40 178 4.0 9.0 0.00 0.28 0.00 99 998.8
20170124094013 40 178 3.0 9.0 0.00 0.28 0.00 99 998.9
20170124093913 40 181 1.0 9.0 0.00 0.28 0.00 99 998.8
20170124093816 40 176 3.0 9.0 0.00 0.28 0.00 99 998.9
20170124093613 40 178 1.0 9.0 0.00 0.28 0.00 99 998.8
20170124093513 40 178 2.0 9.0 0.00 0.28 0.00 99 998.9
20170124093413 40 178 3.0 9.0 0.00 0.28 0.00 99 998.9
20170124093313 40 178 4.0 9.0 0.00 0.28 0.00 99 998.8
20170124092813 40 175 1.0 6.0 0.00 0.28 0.00 99 998.8
20170124092713 40 179 2.0 6.0 0.00 0.28 0.00 99 998.7
20170124092613 40 182 2.0 6.0 0.00 0.28 0.00 99 998.6
20170124092513 40 182 2.0 6.0 0.00 0.28 0.00 99 998.8
20170124092213 40 190 1.0 6.0 0.00 0.28 0.00 99 998.6
20170124092013 40 201 1.0 4.0 0.00 0.28 0.00 99 998.6
20170124091914 40 200 1.0 4.0 0.00 0.28 0.00 99 998.4
20170124091816 40 206 1.0 4.0 0.00 0.28 0.00 99 998.5
20170124091713 40 207 1.0 4.0 0.00 0.28 0.00 99 998.5
20170124091613 40 205 1.0 4.0 0.00 0.28 0.00 99 998.1
20170124091413 40 204 2.0 4.0 0.00 0.28 0.00 99 998.4
20170124091213 40 214 1.0 4.0 0.00 0.28 0.00 99 998.3
20170124091013 40 212 1.0 5.0 0.00 0.28 0.00 99 998.3
20170124090813 40 223 1.0 5.0 0.00 0.30 0.00 99 998.3
20170124090713 40 223 1.0 7.0 0.00 0.30 0.00 99 998.4
20170124090612 40 220 1.0 7.0 0.00 0.30 0.00 99 998.1
20170124090513 40 216 0.0 7.0 0.00 0.30 0.00 99 998.1
20170124090413 40 219 1.0 7.0 0.00 0.30 0.00 99 998.2
20170124090313 40 212 1.0 7.0 0.00 0.30 0.00 99 998.0
20170124090213 40 209 2.0 7.0 0.00 0.30 0.00 99 998.0
20170124090013 40 190 1.0 11.0 0.00 0.30 0.00 99 998.1
20170124085913 40 188 0.0 11.0 0.00 0.30 0.00 99 998.2
20170124085410 40 187 1.0 11.0 0.00 0.30 0.00 99 998.0
20170124085211 40 192 3.0 11.0 0.00 0.30 0.00 99 998.2
20170124084911 40 219 1.0 5.0 0.00 0.30 0.00 99 998.2
20170124084710 40 213 1.0 5.0 0.00 0.30 0.00 99 998.3
20170124084211 40 191 2.0 7.0 0.00 0.30 0.00 99 998.3
20170124084111 40 192 0.0 7.0 0.00 0.30 0.00 99 998.3
20170124084011 40 186 1.0 7.0 0.00 0.30 0.00 99 998.3
20170124083911 40 179 3.0 7.0 0.00 0.30 0.00 99 998.4
20170124083811 40 179 1.0 9.0 0.00 0.30 0.00 99 998.3
20170124083711 40 177 1.0 9.0 0.00 0.30 0.00 99 998.4
20170124083611 40 178 3.0 9.0 0.00 0.30 0.00 99 998.4
20170124083511 40 183 1.0 9.0 0.00 0.30 0.00 99 998.6
20170124083211 40 174 1.0 9.0 0.00 0.30 0.00 99 998.4
20170124083011 40 168 2.0 12.0 0.00 0.30 0.00 99 998.3
20170124082911 40 171 2.0 12.0 0.00 0.30 0.00 99 998.5
20170124082611 40 179 5.0 12.0 0.00 0.30 0.00 99 998.4
20170124082511 40 176 4.0 12.0 0.00 0.30 0.00 99 998.3
20170124082411 40 170 3.0 12.0 0.00 0.30 0.00 99 998.5
20170124082311 40 170 3.0 12.0 0.00 0.30 0.00 99 998.4
20170124082211 40 172 2.0 12.0 0.00 0.30 0.00 99 998.3
20170124082112 40 172 6.0 12.0 0.00 0.30 0.00 99 998.2
20170124081811 40 179 6.0 11.0 0.00 0.30 0.00 99 998.2
20170124081611 40 172 1.0 7.0 0.00 0.30 0.00 99 998.2
20170124081211 40 185 2.0 7.0 0.00 0.30 0.00 99 998.6
20170124081111 40 185 3.0 7.0 0.00 0.30 0.00 99 998.4
20170124080911 40 177 3.0 9.0 0.00 0.30 0.00 99 998.2
20170124080811 40 174 3.0 9.0 0.00 0.30 0.00 99 998.2
20170124080711 40 174 3.0 9.0 0.00 0.30 0.00 99 998.2
20170124080611 40 173 3.0 9.0 0.00 0.30 0.00 99 998.3
20170124080311 40 170 3.0 9.0 0.00 0.30 0.00 99 998.2
20170124080211 40 170 3.0 11.0 0.00 0.30 0.00 99 998.3
20170124080011 40 167 3.0 11.0 0.00 0.30 0.00 99 998.2
20170124075911 40 167 7.0 11.0 0.00 0.30 0.00 99 998.1
20170124075811 40 169 5.0 11.0 0.00 0.30 0.00 99 998.2
20170124075710 41 164 6.0 11.0 0.00 0.30 0.00 99 998.2
20170124075611 40 164 5.0 11.0 0.00 0.30 0.00 99 998.2
20170124075311 41 160 7.0 11.0 0.00 0.30 0.00 99 998.1
20170124075111 41 162 2.0 11.0 0.00 0.30 0.00 99 998.2
20170124074811 41 165 5.0 11.0 0.00 0.30 0.00 99 998.1
20170124074511 41 167 7.0 11.0 0.00 0.30 0.00 99 997.9
20170124074411 41 170 2.0 9.0 0.00 0.30 0.00 99 998.0
20170124074111 41 162 1.0 9.0 0.00 0.30 0.00 99 997.8
20170124074011 41 166 5.0 9.0 0.00 0.30 0.00 99 997.8
20170124073811 41 154 2.0 11.0 0.00 0.30 0.00 99 998.0
20170124073712 41 149 5.0 11.0 0.00 0.30 0.00 99 997.9
20170124073611 41 153 3.0 11.0 0.00 0.30 0.00 99 997.8
20170124073511 41 154 3.0 11.0 0.00 0.30 0.00 99 997.7
20170124072911 41 168 5.0 11.0 0.00 0.30 0.00 99 997.8
20170124072811 41 183 7.0 11.0 0.00 0.30 0.00 99 997.7
20170124072711 41 187 5.0 11.0 0.00 0.30 0.00 99 998.0
20170124072311 41 190 3.0 11.0 0.00 0.30 0.00 99 997.6
20170124072111 41 209 3.0 9.0 0.00 0.30 0.00 99 997.8
20170124072011 41 200 3.0 9.0 0.00 0.30 0.00 99 997.6
20170124071911 41 197 5.0 9.0 0.00 0.30 0.00 99 997.4
20170124071811 41 193 5.0 9.0 0.00 0.30 0.00 99 997.6
20170124071611 41 198 4.0 9.0 0.00 0.30 0.00 99 997.5
20170124071411 41 204 2.0 9.0 0.00 0.30 0.00 99 997.6
20170124071312 41 205 2.0 9.0 0.00 0.30 0.00 99 997.4
20170124071212 41 199 6.0 9.0 0.00 0.30 0.00 99 997.5
20170124071111 41 183 3.0 8.0 0.00 0.30 0.00 99 997.3
20170124070911 41 183 3.0 6.0 0.00 0.30 0.00 99 997.2
20170124070511 41 189 3.0 8.0 0.00 0.30 0.00 99 997.3
20170124065911 41 207 1.0 8.0 0.00 0.30 0.00 99 997.3
20170124065811 41 202 2.0 8.0 0.00 0.30 0.00 99 997.4
20170124065611 41 198 1.0 8.0 0.00 0.30 0.00 99 997.5
20170124065511 41 192 3.0 8.0 0.00 0.30 0.00 99 997.3
20170124065410 41 189 2.0 7.0 0.00 0.30 0.00 99 997.4
20170124065211 41 188 1.0 7.0 0.00 0.30 0.00 99 997.2
20170124065111 41 190 3.0 7.0 0.00 0.30 0.00 99 997.3
20170124064711 41 182 3.0 8.0 0.00 0.30 0.00 99 997.3
20170124064411 41 182 1.0 8.0 0.00 0.30 0.00 99 997.3
20170124064311 41 191 1.0 9.0 0.00 0.30 0.00 99 997.3
20170124064110 41 189 1.0 9.0 0.00 0.30 0.00 99 997.4
20170124063911 41 199 3.0 9.0 0.00 0.30 0.00 99 997.2
20170124063811 41 200 1.0 9.0 0.00 0.30 0.00 99 997.2
20170124063711 41 197 3.0 9.0 0.00 0.30 0.00 99 997.0
20170124063511 41 211 2.0 10.0 0.00 0.30 0.00 99 997.2
20170124063211 41 210 3.0 10.0 0.00 0.30 0.00 99 997.2
20170124063111 41 213 2.0 10.0 0.00 0.30 0.00 99 997.2
20170124062911 41 219 1.0 10.0 0.00 0.30 0.00 99 997.0
20170124062811 41 218 2.0 10.0 0.00 0.30 0.00 99 996.9
20170124062610 41 208 5.0 10.0 0.00 0.30 0.00 99 997.0
20170124062411 42 193 1.0 5.0 0.00 0.30 0.00 99 996.9
20170124062211 41 189 1.0 5.0 0.00 0.30 0.00 99 997.1
20170124062111 41 193 1.0 5.0 0.00 0.30 0.00 99 996.9
20170124062010 41 191 1.0 5.0 0.00 0.30 0.00 99 997.2
20170124061711 41 196 3.0 5.0 0.00 0.30 0.00 99 997.2
20170124061411 42 164 1.0 4.0 0.00 0.30 0.00 99 997.2
20170124061311 42 154 2.0 4.0 0.00 0.30 0.00 99 997.0
20170124061211 42 158 2.0 4.0 0.00 0.30 0.00 99 996.9
20170124061111 42 150 1.0 4.0 0.00 0.30 0.00 99 997.1
20170124061011 42 144 1.0 3.0 0.00 0.30 0.00 99 997.1
20170124060710 42 148 1.0 5.0 0.00 0.30 0.00 99 996.8
20170124060611 42 154 1.0 8.0 0.00 0.30 0.00 99 997.0
20170124060511 42 162 1.0 8.0 0.00 0.30 0.00 99 997.0
20170124060411 42 172 1.0 8.0 0.00 0.30 0.00 99 997.2
20170124060211 42 188 1.0 8.0 0.00 0.30 0.00 99 997.0
20170124060110 42 191 1.0 8.0 0.00 0.30 0.00 99 997.1
20170124060011 42 198 1.0 8.0 0.00 0.30 0.00 99 997.1
20170124055811 42 202 2.0 8.0 0.00 0.30 0.00 99 997.0
20170124055711 42 217 2.0 8.0 0.00 0.30 0.00 99 997.1
20170124055410 42 238 1.0 6.0 0.00 0.30 0.00 99 997.0
20170124055211 42 238 1.0 6.0 0.00 0.30 0.00 99 996.9
20170124054911 42 234 1.0 8.0 0.00 0.30 0.00 99 996.8
20170124054411 42 213 2.0 8.0 0.01 0.30 0.00 99 996.9
20170124054111 42 206 3.0 8.0 0.01 0.30 0.00 99 997.0
20170124053911 42 205 4.0 8.0 0.01 0.30 0.00 99 997.0
20170124053711 42 199 3.0 8.0 0.01 0.30 0.00 99 997.2
20170124053611 42 205 3.0 8.0 0.01 0.30 0.00 99 996.8
20170124053510 42 215 2.0 8.0 0.01 0.30 0.00 99 997.0
20170124053411 42 211 3.0 8.0 0.01 0.30 0.00 99 997.0
20170124053311 42 205 2.0 9.0 0.01 0.30 0.00 99 997.0
20170124053211 42 205 3.0 9.0 0.01 0.30 0.00 99 997.0
20170124053111 42 207 3.0 9.0 0.01 0.30 0.00 99 996.7
20170124052611 42 200 3.0 11.0 0.01 0.30 0.00 99 996.8
20170124052511 42 206 1.0 11.0 0.01 0.30 0.00 99 996.8
20170124052211 42 212 3.0 11.0 0.01 0.30 0.00 99 996.9
20170124052011 42 212 3.0 11.0 0.01 0.30 0.00 99 997.0
20170124051710 42 205 3.0 11.0 0.01 0.30 0.00 99 997.2
20170124051610 42 199 5.0 11.0 0.01 0.30 0.00 99 997.0
20170124051511 42 188 4.0 9.0 0.01 0.30 0.00 99 996.8
20170124051311 42 198 1.0 9.0 0.01 0.30 0.00 99 997.0
20170124051211 42 201 1.0 9.0 0.01 0.30 0.00 99 996.9
20170124051111 42 197 2.0 9.0 0.01 0.30 0.00 99 996.9
20170124050911 42 208 5.0 9.0 0.01 0.30 0.00 99 996.8
20170124050811 42 215 3.0 9.0 0.01 0.30 0.00 99 996.8
20170124050611 42 214 5.0 9.0 0.01 0.30 0.00 99 996.9
20170124050510 42 211 2.0 7.0 0.01 0.30 0.00 99 997.1
20170124050411 42 209 3.0 9.0 0.01 0.30 0.00 99 996.8
20170124050311 42 202 5.0 9.0 0.01 0.30 0.00 99 997.1
20170124050211 42 199 2.0 9.0 0.01 0.30 0.00 99 996.7
20170124050111 42 200 1.0 9.0 0.01 0.30 0.30 99 996.7
20170124045711 42 184 1.0 15.0 0.01 0.30 0.30 99 996.9
20170124045611 42 182 4.0 15.0 0.01 0.30 0.30 99 996.9
20170124045511 42 184 4.0 15.0 0.01 0.30 0.30 99 996.7
20170124045411 42 188 4.0 15.0 0.01 0.30 0.30 99 996.7
20170124045310 42 189 1.0 15.0 0.01 0.30 0.30 99 996.7
20170124045210 42 188 2.0 15.0 0.01 0.30 0.30 99 997.0
20170124044911 42 184 7.0 15.0 0.01 0.30 0.30 99 996.8
20170124044811 43 181 3.0 11.0 0.00 0.28 0.28 99 997.0
20170124044610 43 171 3.0 11.0 0.00 0.28 0.28 99 996.8
20170124044411 43 172 3.0 11.0 0.00 0.28 0.28 99 997.0
20170124044311 42 181 3.0 11.0 0.00 0.28 0.28 99 996.8
20170124044211 42 175 5.0 11.0 0.00 0.28 0.28 99 997.1
20170124044111 42 172 7.0 11.0 0.00 0.28 0.28 99 996.5
20170124043911 43 185 3.0 8.0 0.00 0.28 0.28 99 996.8
20170124043811 43 189 1.0 8.0 0.00 0.28 0.28 99 996.8
20170124043711 43 203 1.0 8.0 0.00 0.28 0.28 99 996.7
20170124043611 43 206 2.0 8.0 0.00 0.28 0.28 99 996.7
20170124043511 43 198 2.0 8.0 0.00 0.28 0.28 99 996.6
20170124043011 43 184 3.0 7.0 0.00 0.28 0.28 99 996.7
20170124042911 43 188 1.0 7.0 0.00 0.28 0.28 99 996.6
20170124042710 43 199 1.0 7.0 0.00 0.28 0.28 99 996.5
20170124042610 43 203 3.0 7.0 0.00 0.28 0.28 99 996.5
20170124042512 43 206 3.0 7.0 0.00 0.28 0.28 99 996.6
20170124042411 43 206 3.0 7.0 0.00 0.28 0.28 99 996.4
20170124042110 43 228 1.0 7.0 0.00 0.28 0.28 98 996.6
20170124042010 43 221 3.0 7.0 0.00 0.28 0.28 98 996.6
20170124041511 43 194 1.0 10.0 0.00 0.28 0.28 98 996.3
20170124041411 43 193 1.0 10.0 0.00 0.28 0.28 98 996.5
20170124041310 43 192 0.0 10.0 0.00 0.28 0.28 98 996.6
20170124041111 43 186 2.0 10.0 0.00 0.28 0.28 98 996.4
20170124040911 43 186 1.0 10.0 0.00 0.28 0.28 98 996.5
20170124040811 43 186 3.0 10.0 0.00 0.28 0.28 98 996.4
20170124040611 43 186 4.0 10.0 0.00 0.28 0.28 98 996.3
20170124040411 43 184 4.0 10.0 0.00 0.28 0.28 98 996.5
20170124040311 43 187 4.0 10.0 0.00 0.28 0.28 98 996.4
20170124040211 43 191 4.0 10.0 0.00 0.28 0.28 98 996.3
20170124040011 43 194 4.0 10.0 0.00 0.28 0.28 98 996.4
20170124035811 43 202 3.0 9.0 0.00 0.28 0.28 98 996.3
20170124035711 43 202 3.0 9.0 0.00 0.28 0.28 98 996.2
20170124035611 43 204 3.0 9.0 0.00 0.28 0.28 98 996.3
20170124035411 43 213 1.0 7.0 0.00 0.28 0.28 98 996.1
20170124035311 43 211 3.0 7.0 0.00 0.28 0.28 98 996.3
20170124035111 43 214 3.0 7.0 0.00 0.28 0.28 98 996.4
20170124034910 43 211 3.0 7.0 0.00 0.28 0.28 98 996.4
20170124034410 44 197 1.0 6.0 0.00 0.28 0.28 98 996.4
20170124034311 44 199 0.0 6.0 0.00 0.28 0.28 98 996.4
20170124033911 44 192 1.0 8.0 0.00 0.28 0.28 98 996.3
20170124033711 44 202 1.0 8.0 0.00 0.28 0.28 98 996.2
20170124033611 44 209 3.0 8.0 0.00 0.28 0.28 98 996.2
20170124033511 44 209 2.0 8.0 0.00 0.28 0.28 98 996.2
20170124033411 44 213 2.0 8.0 0.00 0.28 0.28 98 996.2
20170124033210 44 215 3.0 8.0 0.00 0.28 0.28 98 996.2
20170124033111 44 213 3.0 8.0 0.00 0.28 0.28 98 996.4
20170124033011 44 211 3.0 8.0 0.00 0.28 0.28 98 996.2
20170124032911 44 220 2.0 5.0 0.00 0.28 0.28 98 996.2
20170124032811 44 218 3.0 5.0 0.00 0.28 0.28 98 996.2
20170124032411 44 210 1.0 5.0 0.00 0.28 0.28 98 996.0
20170124032011 44 220 1.0 6.0 0.00 0.28 0.28 98 996.1
20170124031911 44 221 2.0 7.0 0.00 0.28 0.28 98 995.9
20170124031811 44 214 1.0 7.0 0.00 0.28 0.28 98 996.1
20170124031511 44 226 1.0 7.0 0.00 0.28 0.28 98 996.2
20170124031411 44 225 1.0 7.0 0.00 0.28 0.28 98 996.1
20170124031211 44 223 3.0 7.0 0.00 0.28 0.28 98 996.0
20170124031110 44 234 1.0 7.0 0.00 0.28 0.28 98 995.9
20170124031011 44 237 3.0 7.0 0.00 0.28 0.28 98 995.9
20170124030911 44 234 2.0 7.0 0.00 0.28 0.28 98 996.0
20170124030811 44 236 3.0 7.0 0.00 0.28 0.28 98 996.0
20170124030711 44 236 2.0 7.0 0.00 0.28 0.28 98 995.9
20170124030610 44 243 2.0 7.0 0.00 0.28 0.28 98 995.9
20170124030511 44 236 2.0 7.0 0.00 0.28 0.28 98 995.8
20170124030411 44 238 1.0 8.0 0.00 0.28 0.28 98 995.9
20170124030210 44 249 3.0 8.0 0.00 0.28 0.28 98 995.7
20170124030110 44 236 1.0 8.0 0.00 0.28 0.28 98 995.6
20170124030011 44 233 1.0 8.0 0.00 0.28 0.28 98 995.7
20170124025911 44 240 3.0 8.0 0.00 0.28 0.28 98 995.7
20170124025811 44 244 2.0 8.0 0.00 0.28 0.28 98 995.7
20170124025710 44 243 2.0 8.0 0.00 0.28 0.28 98 995.7
20170124025511 44 230 3.0 8.0 0.00 0.28 0.28 98 995.8
20170124025411 44 232 3.0 8.0 0.00 0.28 0.28 98 995.9
20170124025312 44 222 1.0 8.0 0.00 0.28 0.28 98 995.7
20170124025211 44 225 3.0 8.0 0.00 0.28 0.28 98 995.8
20170124025112 44 232 4.0 8.0 0.00 0.28 0.28 98 995.7
20170124025011 44 236 2.0 8.0 0.01 0.28 0.28 98 995.9
20170124024811 44 219 3.0 8.0 0.01 0.28 0.28 98 995.7
20170124024711 44 219 2.0 8.0 0.01 0.28 0.28 98 995.8
20170124024511 44 242 3.0 4.0 0.01 0.28 0.28 98 995.8
20170124024311 44 236 1.0 3.0 0.01 0.28 0.28 98 995.8
20170124024111 44 237 1.0 3.0 0.01 0.28 0.28 98 995.7
20170124024011 44 251 1.0 3.0 0.01 0.28 0.28 98 995.8
20170124023811 44 270 1.0 5.0 0.01 0.28 0.28 98 995.8
20170124023710 44 272 1.0 5.0 0.01 0.28 0.28 98 995.6
20170124023511 44 270 1.0 5.0 0.01 0.28 0.28 98 995.6
20170124023111 44 261 1.0 5.0 0.01 0.28 0.28 98 995.4
20170124023011 44 255 2.0 10.0 0.01 0.28 0.28 98 995.6
20170124022911 44 255 2.0 10.0 0.02 0.28 0.28 98 995.4
20170124022710 44 256 1.0 10.0 0.02 0.30 0.28 98 995.7
20170124022511 44 251 3.0 10.0 0.02 0.30 0.28 98 995.5
20170124022411 44 251 2.0 10.0 0.02 0.30 0.28 98 995.5
20170124022311 44 255 1.0 10.0 0.02 0.30 0.28 98 995.5
20170124022110 44 262 3.0 10.0 0.02 0.30 0.28 98 995.4
20170124022011 44 267 5.0 10.0 0.02 0.30 0.28 98 995.6
20170124021511 44 262 1.0 5.0 0.04 0.30 0.28 98 995.4
20170124021311 44 262 2.0 5.0 0.04 0.30 0.28 98 995.4
20170124021211 44 264 2.0 5.0 0.04 0.30 0.28 98 995.5
20170124021111 44 264 3.0 5.0 0.04 0.30 0.28 98 995.5
20170124020910 44 267 3.0 5.0 0.05 0.30 0.28 98 995.6
20170124020811 44 268 2.0 5.0 0.05 0.30 0.28 98 995.3
20170124020711 44 270 3.0 5.0 0.05 0.30 0.28 98 995.3
20170124020611 44 270 3.0 5.0 0.05 0.30 0.28 98 995.5
20170124020511 44 271 3.0 5.0 0.05 0.30 0.28 98 995.5
20170124020410 44 274 3.0 5.0 0.05 0.30 0.28 98 995.4
20170124020311 44 271 3.0 5.0 0.05 0.30 0.28 98 995.5
20170124020112 44 259 3.0 8.0 0.05 0.30 0.28 98 995.4
20170124020011 44 258 3.0 8.0 0.05 0.30 0.28 98 995.6
20170124015910 44 258 3.0 8.0 0.05 0.30 0.28 98 995.6
20170124015711 44 248 3.0 8.0 0.05 0.30 0.28 98 995.5
20170124015510 44 245 1.0 8.0 0.05 0.30 0.28 98 995.6
20170124015410 44 245 1.0 8.0 0.05 0.30 0.28 98 995.4
20170124015311 44 249 3.0 8.0 0.05 0.30 0.28 98 995.2
20170124014911 44 237 1.0 9.0 0.04 0.28 0.27 98 995.6
20170124014711 44 235 2.0 9.0 0.04 0.28 0.27 98 995.4
20170124014611 44 231 1.0 9.0 0.04 0.28 0.27 98 995.6
20170124014511 44 234 3.0 9.0 0.04 0.28 0.27 98 995.4
20170124014411 44 232 5.0 9.0 0.04 0.28 0.27 98 995.4
20170124014310 44 220 3.0 9.0 0.04 0.28 0.27 98 995.4
20170124014011 44 239 5.0 9.0 0.04 0.28 0.27 98 995.3
20170124013911 44 251 4.0 9.0 0.04 0.28 0.27 98 995.3
20170124013810 44 256 2.0 6.0 0.04 0.28 0.27 98 995.4
20170124013710 44 248 1.0 6.0 0.04 0.28 0.27 98 995.3
20170124013411 44 237 2.0 7.0 0.04 0.28 0.27 98 995.2
20170124013311 44 244 2.0 7.0 0.04 0.28 0.27 98 995.2
20170124013210 44 234 2.0 7.0 0.05 0.28 0.27 98 995.2
20170124013011 44 231 1.0 7.0 0.05 0.28 0.27 98 995.3
20170124012911 44 232 2.0 7.0 0.04 0.27 0.26 98 995.1
20170124012811 44 236 1.0 7.0 0.04 0.27 0.26 98 995.2
20170124012711 44 242 3.0 7.0 0.04 0.27 0.26 98 995.2
20170124012610 44 247 4.0 7.0 0.04 0.27 0.26 98 995.0
20170124012411 44 248 3.0 6.0 0.04 0.27 0.26 98 995.1
20170124012311 44 249 3.0 6.0 0.04 0.27 0.26 98 995.1
20170124012211 44 251 3.0 6.0 0.04 0.27 0.26 98 995.1
20170124012110 44 253 2.0 6.0 0.04 0.27 0.26 98 995.2
20170124012011 44 253 1.0 6.0 0.04 0.27 0.26 98 995.1
20170124011911 44 253 2.0 6.0 0.04 0.27 0.26 98 995.2
20170124011811 44 246 2.0 6.0 0.02 0.26 0.25 98 995.0
20170124011710 44 246 1.0 6.0 0.02 0.26 0.25 98 995.2
20170124011010 44 243 3.0 9.0 0.01 0.25 0.24 98 995.2
20170124010911 44 242 2.0 9.0 0.01 0.25 0.24 98 995.2
20170124010811 44 248 1.0 9.0 0.01 0.25 0.24 98 995.3
20170124010711 44 247 2.0 9.0 0.01 0.25 0.24 98 995.2
20170124010511 44 253 3.0 9.0 0.01 0.25 0.24 98 995.2
20170124010411 44 250 3.0 9.0 0.01 0.25 0.24 98 995.1
20170124010211 44 254 3.0 7.0 0.01 0.25 0.24 98 995.0
20170124005911 44 246 1.0 7.0 0.01 0.25 0.24 98 995.1
20170124005811 44 246 0.0 7.0 0.01 0.25 0.24 98 994.9
20170124005610 44 231 4.0 9.0 0.01 0.25 0.24 98 995.0
20170124005411 44 231 2.0 9.0 0.01 0.25 0.24 98 995.0
20170124005311 44 228 1.0 9.0 0.01 0.25 0.24 98 994.9
20170124005110 44 224 2.0 9.0 0.01 0.25 0.24 98 994.7
20170124004911 44 224 2.0 9.0 0.01 0.25 0.24 98 995.0
20170124004510 45 269 1.0 10.0 0.01 0.25 0.24 97 994.9
20170124004411 45 268 1.0 10.0 0.01 0.25 0.24 97 994.8
20170124004111 45 266 3.0 10.0 0.01 0.25 0.24 97 994.8
20170124003812 45 265 1.0 10.0 0.01 0.25 0.24 97 994.9
20170124003511 45 253 1.0 5.0 0.01 0.25 0.24 97 994.7
20170124003411 45 247 1.0 5.0 0.01 0.25 0.24 97 994.5
20170124003110 45 252 1.0 5.0 0.00 0.24 0.22 97 994.5
20170124003011 45 247 2.0 6.0 0.00 0.24 0.22 97 994.6
20170124002911 45 244 1.0 6.0 0.00 0.24 0.22 97 994.5
20170124002710 45 241 2.0 6.0 0.00 0.24 0.22 97 994.7
20170124002511 45 239 2.0 6.0 0.00 0.24 0.22 97 994.6
20170124002411 45 242 3.0 6.0 0.00 0.24 0.22 97 994.5
20170124002311 45 237 3.0 6.0 0.00 0.24 0.22 97 994.5
20170124002010 45 248 3.0 6.0 0.00 0.24 0.22 97 994.4
20170124001911 45 254 3.0 6.0 0.00 0.24 0.22 97 994.3
20170124001811 45 250 3.0 6.0 0.00 0.24 0.22 97 994.1
20170124001711 45 257 3.0 6.0 0.00 0.24 0.22 97 994.3
20170124001510 45 251 3.0 6.0 0.00 0.24 0.22 97 994.2
20170124001310 45 253 3.0 6.0 0.00 0.24 0.22 97 994.2
20170124001211 45 241 4.0 6.0 0.00 0.24 0.22 97 994.0
20170124000911 45 196 1.0 3.0 0.00 0.24 0.22 97 994.3
20170124000611 45 211 1.0 5.0 0.00 0.24 0.22 97 994.1
20170124000511 45 218 1.0 5.0 0.00 0.24 0.22 97 994.1
20170124000410 45 220 1.0 5.0 0.00 0.24 0.22 97 993.9
20170124000111 45 222 1.0 5.0 0.00 0.24 0.22 97 994.1
20170124000011 45 229 1.0 5.0 0.00 0.24 0.22 97 994.1
20170123235610 45 228 3.0 5.0 0.00 0.24 0.22 97 994.0
20170123235511 45 227 1.0 5.0 0.00 0.24 0.22 97 994.0
20170123235411 45 234 1.0 5.0 0.00 0.24 0.22 97 994.0
20170123235210 45 230 1.0 5.0 0.00 0.24 0.22 97 994.0
20170123235011 45 227 3.0 5.0 0.00 0.24 0.22 97 994.2
20170123234811 45 224 1.0 5.0 0.00 0.24 0.22 97 994.0
20170123234610 45 224 1.0 5.0 0.00 0.25 0.22 97 994.1
20170123234411 45 214 3.0 5.0 0.00 0.25 0.22 97 994.2
20170123234211 45 213 1.0 5.0 0.00 0.25 0.22 97 994.0
20170123234111 45 211 1.0 5.0 0.00 0.25 0.22 97 993.9
20170123233910 45 226 0.0 4.0 0.01 0.25 0.22 97 994.0
20170123233810 45 230 1.0 5.0 0.01 0.25 0.22 97 993.9
20170123233711 45 228 2.0 5.0 0.01 0.25 0.22 97 993.8
20170123233611 45 230 2.0 5.0 0.01 0.25 0.22 97 994.0
20170123233511 45 238 1.0 5.0 0.01 0.25 0.22 97 994.0
20170123233111 45 243 1.0 5.0 0.01 0.25 0.22 97 993.8
20170123232810 45 246 2.0 8.0 0.01 0.25 0.22 97 993.7
20170123232710 45 253 3.0 8.0 0.01 0.25 0.22 97 993.7
20170123232610 45 256 3.0 8.0 0.01 0.25 0.22 97 993.7
20170123232511 45 253 2.0 8.0 0.01 0.25 0.22 97 993.7
20170123232411 45 253 1.0 8.0 0.01 0.25 0.22 97 993.6
20170123232010 45 253 2.0 8.0 0.01 0.25 0.22 97 993.4
20170123231911 45 250 4.0 8.0 0.01 0.25 0.22 97 993.7
20170123231811 45 247 5.0 8.0 0.01 0.25 0.22 97 993.5
20170123231711 45 243 1.0 6.0 0.01 0.25 0.22 97 993.5
20170123231510 45 243 4.0 6.0 0.01 0.25 0.22 97 993.6
20170123231311 45 242 2.0 5.0 0.01 0.25 0.22 97 993.4
20170123231211 45 241 3.0 5.0 0.01 0.25 0.22 97 993.2
20170123231011 45 235 3.0 5.0 0.01 0.25 0.22 97 993.4
20170123230710 45 240 3.0 5.0 0.01 0.25 0.22 97 993.1
20170123230611 45 233 2.0 5.0 0.01 0.25 0.22 97 993.2
20170123230511 45 229 1.0 5.0 0.01 0.25 0.22 97 993.5
20170123230411 45 222 1.0 8.0 0.01 0.25 0.22 97 993.3
20170123230311 45 218 2.0 8.0 0.01 0.25 0.22 97 993.3
20170123230211 45 213 1.0 8.0 0.01 0.25 0.22 97 993.4
20170123225911 45 215 3.0 8.0 0.01 0.25 0.22 97 993.4
20170123225710 45 215 2.0 8.0 0.01 0.25 0.22 97 993.5
20170123225611 45 218 1.0 8.0 0.01 0.25 0.22 97 993.2
20170123225511 45 220 1.0 8.0 0.01 0.25 0.22 97 993.3
20170123225411 45 229 3.0 8.0 0.01 0.25 0.22 97 993.4
20170123225311 45 241 3.0 7.0 0.01 0.25 0.22 97 993.5
20170123225210 45 248 1.0 7.0 0.01 0.25 0.22 97 993.3
20170123225011 45 253 1.0 7.0 0.01 0.25 0.22 97 993.3
20170123224911 45 255 1.0 7.0 0.01 0.25 0.22 97 993.4
20170123224710 45 263 3.0 7.0 0.01 0.25 0.22 97 993.3
20170123224311 45 261 2.0 6.0 0.01 0.25 0.22 97 993.3
20170123224210 45 254 1.0 7.0 0.01 0.25 0.22 97 993.1
20170123224011 46 250 2.0 7.0 0.00 0.24 0.21 97 993.3
20170123223911 46 244 0.0 7.0 0.00 0.24 0.21 97 993.4
20170123223811 46 241 3.0 7.0 0.00 0.24 0.21 97 993.2
20170123223610 46 231 2.0 7.0 0.00 0.24 0.21 97 993.2
20170123223511 46 236 2.0 7.0 0.00 0.24 0.21 97 993.3
20170123223411 46 233 2.0 7.0 0.00 0.24 0.21 97 993.0
20170123223311 46 231 3.0 7.0 0.00 0.24 0.21 97 993.2
20170123223211 46 226 3.0 6.0 0.00 0.24 0.21 97 993.2
20170123223110 46 226 3.0 6.0 0.00 0.24 0.21 97 993.3
20170123223011 46 228 3.0 6.0 0.00 0.24 0.21 97 993.2
20170123222911 46 226 3.0 5.0 0.00 0.24 0.21 97 993.2
20170123222610 46 228 2.0 5.0 0.00 0.24 0.21 97 993.1
20170123222510 46 225 2.0 5.0 0.00 0.24 0.21 97 992.9
20170123222311 46 236 2.0 5.0 0.00 0.24 0.21 97 992.9
20170123221711 46 246 1.0 4.0 0.00 0.24 0.21 97 993.1
20170123221411 46 259 2.0 4.0 0.00 0.24 0.21 97 992.8
20170123221310 46 259 3.0 4.0 0.00 0.24 0.21 97 993.1
20170123221110 46 259 0.0 3.0 0.00 0.24 0.21 97 993.2
20170123221011 46 262 1.0 3.0 0.00 0.24 0.21 97 993.0
20170123220710 46 266 1.0 3.0 0.00 0.24 0.21 97 993.0
20170123220610 46 264 1.0 8.0 0.00 0.24 0.21 97 992.9
20170123220511 46 257 1.0 8.0 0.00 0.24 0.21 97 993.0
20170123220311 46 251 1.0 8.0 0.01 0.24 0.21 97 992.9
20170123220010 46 239 1.0 8.0 0.01 0.24 0.21 97 992.7
20170123215911 46 234 2.0 8.0 0.01 0.24 0.21 97 992.8
20170123215610 46 234 3.0 8.0 0.01 0.24 0.21 97 992.7
20170123215510 46 239 2.0 8.0 0.01 0.24 0.21 97 992.7
20170123215211 46 239 2.0 7.0 0.01 0.24 0.21 97 992.9
20170123215110 46 237 2.0 7.0 0.01 0.24 0.21 97 992.6
20170123215010 46 239 3.0 7.0 0.01 0.24 0.21 97 992.7
20170123214811 46 247 3.0 7.0 0.01 0.24 0.21 97 992.5
20170123214611 46 238 1.0 7.0 0.01 0.24 0.21 97 992.4
20170123214311 46 225 5.0 7.0 0.01 0.24 0.21 97 992.6
20170123214211 46 214 4.0 7.0 0.01 0.24 0.21 97 992.4
20170123205410 47 261 3.0 7.0 0.00 0.22 0.20 99 991.8
20170123205210 47 255 3.0 7.0 0.00 0.22 0.20 99 991.4
20170123205111 47 249 1.0 5.0 0.00 0.22 0.20 99 991.6
20170123204810 47 234 2.0 7.0 0.00 0.22 0.20 99 991.5
20170123204511 47 249 3.0 7.0 0.00 0.22 0.20 99 991.4
20170123204210 46 253 2.0 7.0 0.00 0.22 0.20 99 991.5
20170123203911 47 258 5.0 7.0 0.00 0.22 0.20 98 991.3
20170123203711 46 262 3.0 7.0 0.00 0.22 0.20 98 991.4
20170123203610 46 258 5.0 7.0 0.00 0.22 0.20 98 991.4
20170123203510 46 250 4.0 7.0 0.00 0.22 0.20 98 991.4
20170123203410 47 249 4.0 7.0 0.00 0.22 0.20 98 991.3
20170123203310 47 248 3.0 7.0 0.00 0.22 0.20 98 991.3
20170123203211 47 251 3.0 8.0 0.00 0.22 0.20 98 991.3
20170123203111 47 251 3.0 8.0 0.00 0.22 0.20 98 991.2
20170123202911 47 262 3.0 8.0 0.00 0.22 0.20 98 991.3
20170123202810 47 257 3.0 8.0 0.00 0.22 0.20 98 991.3
20170123202710 47 250 2.0 8.0 0.00 0.22 0.20 98 991.3
20170123201910 47 256 4.0 7.0 0.00 0.22 0.20 97 991.2
20170123201810 47 260 3.0 7.0 0.00 0.22 0.20 97 991.1
20170123201711 47 265 2.0 7.0 0.00 0.22 0.20 97 991.2
20170123201610 47 270 1.0 7.0 0.00 0.22 0.20 97 991.3
20170123201511 47 268 2.0 7.0 0.00 0.22 0.20 97 991.4
20170123201310 47 268 1.0 7.0 0.00 0.22 0.20 97 991.1
20170123201211 47 270 1.0 7.0 0.00 0.22 0.20 97 991.2
20170123201111 47 270 4.0 7.0 0.00 0.22 0.20 97 991.3
20170123200910 47 266 1.0 5.0 0.00 0.22 0.20 97 991.0
20170123200810 47 264 1.0 5.0 0.00 0.22 0.20 97 991.2
20170123200710 47 264 4.0 5.0 0.00 0.22 0.20 97 991.3
20170123200611 47 265 4.0 5.0 0.00 0.22 0.20 97 991.2
20170123200511 47 262 4.0 5.0 0.00 0.22 0.20 97 991.1
20170123200410 47 261 4.0 5.0 0.00 0.22 0.20 97 991.2
20170123200210 47 252 4.0 7.0 0.00 0.22 0.20 97 991.0
20170123200111 47 247 4.0 7.0 0.00 0.22 0.20 97 991.2
20170123195710 47 245 1.0 7.0 0.00 0.22 0.20 97 990.9
20170123195411 47 236 3.0 7.0 0.00 0.22 0.20 98 991.1
20170123195211 47 229 1.0 6.0 0.00 0.22 0.20 98 991.2
20170123195010 47 247 1.0 6.0 0.00 0.22 0.20 98 990.9
20170123194910 47 254 3.0 6.0 0.00 0.22 0.20 98 991.1
20170123194810 47 254 3.0 6.0 0.00 0.22 0.20 98 991.3
20170123194711 47 249 2.0 7.0 0.00 0.22 0.20 98 991.2
20170123194611 47 256 2.0 7.0 0.00 0.22 0.20 98 991.1
20170123194511 47 262 1.0 7.0 0.00 0.22 0.20 98 991.1
20170123194410 47 264 3.0 7.0 0.00 0.22 0.20 98 991.0
20170123194310 47 268 1.0 7.0 0.00 0.22 0.20 98 991.1
20170123194111 47 262 3.0 7.0 0.00 0.22 0.20 98 991.1
20170123193911 47 257 3.0 7.0 0.00 0.22 0.20 98 991.0
20170123193710 47 263 3.0 5.0 0.00 0.22 0.20 99 991.0
20170123193610 47 263 3.0 5.0 0.00 0.22 0.20 99 991.0
20170123193411 47 261 2.0 7.0 0.00 0.22 0.20 99 991.0
20170123193311 47 254 2.0 7.0 0.00 0.22 0.20 99 991.1
20170123193210 47 250 1.0 7.0 0.00 0.22 0.20 99 991.0
20170123193110 47 253 2.0 7.0 0.00 0.22 0.20 99 991.0
20170123192910 47 258 3.0 7.0 0.00 0.22 0.20 99 990.8
20170123192811 47 258 2.0 7.0 0.00 0.22 0.20 99 991.0
20170123192711 47 255 4.0 7.0 0.00 0.22 0.20 99 990.9
20170123192510 47 253 5.0 7.0 0.00 0.22 0.20 99 990.9
20170123192410 47 251 2.0 7.0 0.00 0.22 0.20 99 990.6
20170123192310 47 256 3.0 7.0 0.00 0.22 0.20 99 990.8
20170123192211 47 265 3.0 7.0 0.00 0.22 0.20 99 990.8
20170123192111 47 259 2.0 7.0 0.00 0.22 0.20 99 991.0
20170123191910 47 250 2.0 7.0 0.00 0.22 0.20 99 990.8
20170123191610 47 252 3.0 7.0 0.00 0.22 0.20 99 990.9
20170123191311 46 249 4.0 7.0 0.00 0.22 0.20 99 990.8
20170123190711 47 258 3.0 8.0 0.00 0.22 0.20 99 990.8
20170123190610 46 259 2.0 9.0 0.00 0.22 0.20 99 990.9
20170123190111 47 256 3.0 9.0 0.00 0.22 0.20 99 990.9
20170123185910 46 258 3.0 9.0 0.00 0.22 0.20 97 990.9
20170123185810 46 256 3.0 9.0 0.00 0.22 0.20 97 990.9
20170123185710 46 256 5.0 9.0 0.00 0.22 0.20 97 990.9
20170123185511 46 259 5.0 8.0 0.00 0.22 0.20 99 990.8
20170123185410 46 259 3.0 8.0 0.00 0.22 0.20 97 990.7
20170123185310 46 257 2.0 7.0 0.00 0.22 0.20 97 990.9
20170123185210 46 250 4.0 7.0 0.00 0.22 0.20 99 990.7
20170123185110 46 253 3.0 7.0 0.00 0.22 0.20 99 990.8
20170123185011 46 250 2.0 7.0 0.00 0.22 0.20 97 990.6
20170123184911 46 244 5.0 7.0 0.00 0.22 0.20 97 990.9
20170123184810 46 249 4.0 7.0 0.00 0.22 0.20 97 990.9
20170123184610 46 237 3.0 7.0 0.00 0.22 0.20 97 991.0
20170123183711 46 251 3.0 9.0 0.00 0.22 0.20 97 990.9
20170123183611 46 255 2.0 12.0 0.00 0.22 0.20 97 990.9
20170123183410 46 261 4.0 12.0 0.00 0.22 0.20 97 991.0
20170123182911 46 279 5.0 12.0 0.00 0.22 0.20 97 991.1
20170123182710 46 271 2.0 12.0 0.00 0.22 0.20 97 991.1
20170123182511 46 264 3.0 7.0 0.00 0.22 0.20 97 991.0
20170123182411 46 265 3.0 7.0 0.00 0.22 0.20 97 991.2
20170123182311 46 260 3.0 7.0 0.00 0.22 0.20 97 991.3
20170123182010 46 259 4.0 9.0 0.00 0.22 0.20 97 991.5
20170123181810 46 267 2.0 9.0 0.00 0.22 0.20 97 991.5
20170123181711 46 267 2.0 9.0 0.00 0.22 0.20 97 991.3
20170123181611 46 267 2.0 9.0 0.00 0.22 0.20 97 991.3
20170123181510 46 266 3.0 9.0 0.00 0.22 0.20 97 991.4
20170123181310 45 260 3.0 9.0 0.00 0.22 0.20 97 991.6
20170123181210 45 251 3.0 9.0 0.00 0.22 0.20 97 991.4
20170123181111 46 246 5.0 9.0 0.00 0.22 0.20 97 991.3
20170123180911 45 235 3.0 9.0 0.00 0.22 0.20 97 991.6
20170123180810 46 233 3.0 9.0 0.00 0.22 0.20 97 991.2
20170123180711 45 236 3.0 9.0 0.00 0.22 0.20 97 991.3
20170123180610 45 241 3.0 9.0 0.00 0.22 0.20 97 991.4
20170123180510 45 242 3.0 9.0 0.00 0.22 0.20 97 991.6
20170123180310 45 250 3.0 9.0 0.00 0.22 0.20 97 991.3
20170123180210 45 254 3.0 9.0 0.00 0.22 0.20 97 991.5
20170123180111 45 257 3.0 9.0 0.00 0.22 0.20 97 991.4
20170123180012 45 261 3.0 9.0 0.00 0.22 0.20 97 991.6
20170123175810 45 261 3.0 9.0 0.00 0.22 0.20 97 991.4
20170123175710 45 256 4.0 7.0 0.00 0.22 0.20 97 991.4
20170123175610 45 253 3.0 5.0 0.00 0.22 0.20 97 991.2
20170123175210 45 261 2.0 6.0 0.00 0.22 0.20 97 991.5
20170123175110 45 262 1.0 6.0 0.00 0.22 0.20 97 991.5
20170123175011 45 253 2.0 8.0 0.00 0.22 0.20 97 991.5
20170123174810 45 261 2.0 8.0 0.00 0.22 0.20 97 991.2
20170123174610 45 273 2.0 8.0 0.00 0.22 0.20 97 991.4
20170123173910 45 263 2.0 7.0 0.00 0.22 0.20 97 991.4
20170123173711 45 260 5.0 8.0 0.00 0.22 0.20 97 991.3
20170123173611 45 243 3.0 8.0 0.00 0.22 0.20 97 991.4
20170123173510 45 252 3.0 8.0 0.00 0.22 0.20 97 991.4
20170123173310 45 259 2.0 8.0 0.00 0.22 0.20 97 991.3
20170123172810 44 256 3.0 8.0 0.00 0.22 0.20 98 991.6
20170123172511 44 261 3.0 10.0 0.00 0.22 0.20 98 991.4
20170123172410 44 258 3.0 10.0 0.00 0.22 0.20 98 991.4
20170123171911 44 256 5.0 10.0 0.00 0.22 0.20 98 991.4
20170123171710 44 255 3.0 10.0 0.00 0.22 0.20 98 991.4
20170123171610 44 257 3.0 10.0 0.00 0.22 0.20 98 991.5
20170123171410 44 258 3.0 9.0 0.00 0.22 0.20 98 991.6
20170123171110 44 250 3.0 9.0 0.00 0.22 0.20 98 991.4
20170123170811 44 252 3.0 8.0 0.00 0.22 0.20 98 991.4
20170123170711 44 252 3.0 8.0 0.00 0.22 0.20 98 991.3
20170123170610 44 252 4.0 8.0 0.00 0.22 0.20 98 991.5
20170123170411 44 260 3.0 7.0 0.00 0.22 0.20 98 991.5
20170123170310 44 262 5.0 7.0 0.00 0.22 0.20 98 991.5
20170123170110 44 267 3.0 7.0 0.00 0.22 0.20 98 991.5
20170123170010 44 267 3.0 7.0 0.00 0.22 0.20 98 991.6
20170123165911 44 267 5.0 7.0 0.00 0.22 0.20 98 991.6
20170123165810 44 268 3.0 7.0 0.00 0.22 0.20 98 991.5
20170123165710 44 266 4.0 7.0 0.00 0.22 0.20 98 991.5
20170123165610 44 264 4.0 7.0 0.00 0.22 0.20 98 991.6
20170123165411 44 260 3.0 8.0 0.00 0.22 0.20 98 991.6
20170123165310 44 258 3.0 8.0 0.00 0.22 0.20 98 991.6
20170123165011 44 252 2.0 8.0 0.00 0.22 0.20 98 991.5
20170123164911 44 253 4.0 8.0 0.00 0.22 0.20 98 991.5
20170123164710 44 256 4.0 8.0 0.00 0.22 0.20 98 991.5
20170123164511 44 258 5.0 8.0 0.00 0.22 0.20 98 991.4
20170123164410 44 258 4.0 7.0 0.00 0.22 0.20 98 991.7
20170123164310 44 260 3.0 7.0 0.00 0.22 0.20 98 991.7
20170123164211 44 260 2.0 7.0 0.00 0.22 0.20 98 991.4
20170123164111 44 261 4.0 7.0 0.00 0.22 0.20 98 991.5
20170123164010 44 258 4.0 7.0 0.00 0.22 0.20 98 991.7
20170123163810 43 256 4.0 7.0 0.00 0.22 0.20 98 991.6
20170123163510 43 260 3.0 7.0 0.00 0.22 0.20 98 991.5
20170123163410 43 261 4.0 7.0 0.00 0.22 0.20 98 991.8
20170123163011 44 262 2.0 7.0 0.00 0.22 0.20 98 991.6
20170123162910 43 263 4.0 7.0 0.00 0.22 0.20 98 991.6
20170123162810 43 267 4.0 7.0 0.00 0.22 0.20 98 991.6
20170123162710 43 267 3.0 7.0 0.00 0.22 0.20 98 991.7
20170123162611 43 267 4.0 7.0 0.00 0.22 0.20 98 991.5
20170123162511 43 267 4.0 7.0 0.00 0.22 0.20 98 991.7
20170123162410 44 265 5.0 7.0 0.00 0.22 0.20 98 991.4
20170123162310 43 258 3.0 7.0 0.00 0.22 0.20 98 991.5
20170123162210 43 260 2.0 8.0 0.00 0.22 0.20 98 991.4
20170123162110 43 266 3.0 8.0 0.00 0.22 0.20 98 991.4
20170123161710 43 255 4.0 8.0 0.00 0.22 0.20 98 991.6
20170123161211 43 257 3.0 7.0 0.00 0.22 0.20 98 991.3
20170123161110 43 257 3.0 7.0 0.00 0.22 0.20 98 991.4
20170123161010 43 261 4.0 7.0 0.00 0.22 0.20 98 991.3
20170123160810 43 268 3.0 5.0 0.00 0.22 0.20 98 991.4
20170123160711 43 266 2.0 6.0 0.00 0.22 0.20 98 991.3
20170123160610 43 266 2.0 7.0 0.00 0.22 0.20 98 991.3
20170123160510 43 266 2.0 7.0 0.00 0.22 0.20 98 991.4
20170123160410 43 266 2.0 7.0 0.00 0.22 0.20 98 991.3
20170123160210 43 266 2.0 11.0 0.00 0.22 0.20 98 991.4
20170123160111 43 264 2.0 11.0 0.00 0.22 0.20 98 991.5
20170123160010 43 264 2.0 11.0 0.00 0.22 0.20 98 991.3
20170123155910 43 264 3.0 11.0 0.00 0.22 0.20 98 991.6
20170123155710 43 266 5.0 11.0 0.00 0.22 0.20 98 991.5
20170123155310 43 255 5.0 9.0 0.00 0.22 0.20 98 991.3
20170123155010 43 254 3.0 9.0 0.00 0.22 0.20 98 991.4
20170123154811 43 248 3.0 9.0 0.00 0.22 0.20 98 991.4
20170123154710 43 250 5.0 9.0 0.00 0.22 0.20 98 991.2
20170123154610 43 255 4.0 9.0 0.00 0.22 0.20 98 991.2
20170123154210 43 253 3.0 9.0 0.00 0.22 0.20 98 991.2
20170123153910 43 262 5.0 9.0 0.00 0.22 0.20 98 991.4
20170123153710 43 258 3.0 7.0 0.00 0.22 0.20 98 991.4
20170123153610 43 259 3.0 7.0 0.00 0.22 0.20 98 991.2
20170123153510 43 261 3.0 7.0 0.00 0.22 0.20 98 991.2
20170123153410 43 259 4.0 7.0 0.00 0.22 0.20 98 991.1
20170123153310 43 259 3.0 7.0 0.00 0.22 0.20 98 991.4
20170123153110 43 249 4.0 7.0 0.00 0.22 0.20 98 991.2
20170123153010 43 255 3.0 8.0 0.00 0.22 0.20 98 991.2
20170123152510 43 251 2.0 11.0 0.00 0.22 0.20 98 991.2
20170123152410 43 253 3.0 11.0 0.00 0.22 0.20 98 991.0
20170123152310 43 260 2.0 11.0 0.00 0.22 0.20 98 991.2
20170123151910 43 248 1.0 11.0 0.00 0.22 0.20 98 991.1
20170123151810 43 248 4.0 11.0 0.00 0.22 0.20 98 991.0
20170123151511 43 247 3.0 7.0 0.00 0.22 0.20 98 991.0
20170123151210 44 242 3.0 7.0 0.00 0.22 0.20 98 991.1
20170123151110 44 244 3.0 7.0 0.00 0.22 0.20 98 990.7
20170123151010 44 239 3.0 7.0 0.00 0.22 0.20 98 991.0
20170123150911 44 241 2.0 7.0 0.00 0.22 0.20 98 990.9
20170123150410 44 245 2.0 8.0 0.00 0.22 0.20 98 991.0
20170123150110 44 259 2.0 8.0 0.00 0.22 0.20 98 990.8
20170123150010 44 261 2.0 8.0 0.00 0.22 0.20 98 990.9
20170123145910 44 259 3.0 8.0 0.00 0.22 0.20 98 990.8
20170123145811 44 260 5.0 8.0 0.00 0.22 0.20 98 990.9
20170123145510 44 261 3.0 8.0 0.00 0.22 0.20 98 990.7
20170123145310 44 257 3.0 8.0 0.00 0.22 0.20 98 990.7
20170123145211 44 256 3.0 8.0 0.00 0.22 0.20 98 990.7
20170123145010 44 259 4.0 8.0 0.00 0.22 0.20 98 990.7
20170123144910 44 259 3.0 8.0 0.00 0.22 0.20 98 990.7
20170123144611 44 254 5.0 9.0 0.00 0.22 0.20 98 990.7
20170123144511 44 255 5.0 9.0 0.00 0.22 0.20 98 990.6
20170123144410 44 257 4.0 9.0 0.00 0.22 0.20 98 990.6
20170123144110 44 257 5.0 9.0 0.00 0.22 0.20 98 990.5
20170123143810 44 263 6.0 9.0 0.00 0.22 0.20 98 990.5
20170123143610 44 267 5.0 9.0 0.01 0.22 0.20 98 990.4
20170123143510 44 265 5.0 9.0 0.01 0.22 0.20 98 990.6
20170123143311 44 264 3.0 9.0 0.01 0.22 0.20 98 990.5
20170123143110 44 259 4.0 9.0 0.01 0.22 0.20 98 990.4
20170123143010 44 261 3.0 9.0 0.01 0.22 0.20 98 990.4
20170123142811 44 259 3.0 9.0 0.01 0.22 0.20 98 990.4
20170123142610 44 261 3.0 9.0 0.01 0.22 0.20 98 990.5
20170123142211 44 257 5.0 11.0 0.01 0.22 0.20 98 990.3
20170123142110 44 256 5.0 11.0 0.01 0.22 0.20 98 990.5
20170123142010 44 249 6.0 11.0 0.01 0.22 0.20 98 990.4
20170123141810 44 235 4.0 11.0 0.01 0.22 0.20 98 990.3
20170123141510 44 234 5.0 11.0 0.02 0.22 0.20 98 990.5
20170123141410 44 241 5.0 11.0 0.02 0.22 0.20 98 990.5
20170123141310 44 240 5.0 11.0 0.02 0.22 0.20 98 990.3
20170123141211 45 238 6.0 11.0 0.02 0.22 0.20 97 990.2
20170123140910 45 255 5.0 9.0 0.02 0.22 0.20 97 990.1
20170123140610 45 258 3.0 7.0 0.02 0.22 0.20 97 990.2
20170123140510 45 253 3.0 7.0 0.02 0.22 0.20 97 990.3
20170123140111 45 254 3.0 7.0 0.02 0.22 0.20 97 990.2
20170123135910 45 252 4.0 8.0 0.02 0.22 0.20 97 990.1
20170123135711 45 248 2.0 8.0 0.02 0.22 0.20 97 990.0
20170123135510 45 249 3.0 8.0 0.02 0.22 0.20 97 990.1
20170123135410 45 250 5.0 9.0 0.02 0.22 0.20 97 990.0
20170123135310 45 247 3.0 9.0 0.04 0.22 0.20 97 989.8
20170123135210 45 246 4.0 9.0 0.04 0.22 0.20 97 990.0
20170123135111 45 245 3.0 9.0 0.04 0.22 0.20 97 989.8
20170123134810 45 251 4.0 9.0 0.04 0.22 0.20 97 989.8
20170123134610 45 254 5.0 9.0 0.04 0.22 0.20 97 990.0
20170123134511 45 259 5.0 9.0 0.04 0.22 0.20 97 989.7
20170123134410 45 257 5.0 9.0 0.04 0.22 0.20 97 989.9
20170123134310 45 260 3.0 8.0 0.04 0.22 0.20 97 989.5
20170123133910 45 272 3.0 12.0 0.04 0.22 0.20 97 989.7
20170123133610 45 270 4.0 12.0 0.02 0.21 0.19 97 989.9
20170123133510 45 269 3.0 12.0 0.02 0.21 0.19 97 989.8
20170123133410 45 270 4.0 12.0 0.02 0.21 0.19 97 989.8
20170123133310 45 270 5.0 12.0 0.02 0.21 0.19 97 989.8
20170123133210 45 267 4.0 12.0 0.02 0.21 0.19 97 989.7
20170123133010 45 266 6.0 12.0 0.02 0.21 0.19 97 989.8
20170123132911 45 260 6.0 11.0 0.02 0.21 0.19 97 989.6
20170123132610 45 261 4.0 8.0 0.04 0.21 0.19 97 989.5
20170123132510 45 264 5.0 8.0 0.04 0.21 0.19 97 989.5
20170123132310 45 264 4.0 8.0 0.04 0.21 0.19 97 989.5
20170123132110 46 268 4.0 10.0 0.04 0.21 0.19 97 989.5
20170123131910 46 265 5.0 10.0 0.04 0.21 0.19 97 989.3
20170123131810 46 261 3.0 10.0 0.04 0.21 0.19 97 989.4
20170123131610 46 258 3.0 10.0 0.04 0.21 0.19 97 989.4
20170123131510 46 256 5.0 10.0 0.02 0.20 0.18 97 989.3
20170123131410 46 253 5.0 10.0 0.02 0.20 0.18 97 989.5
20170123131310 46 249 4.0 10.0 0.02 0.20 0.18 97 989.4